When you browse on this site, cookies collect data to enhance your experience and personalize the content and advertising you see.
Visit our Privacy Policy to learn more. By continuing to use the site, you agree to this use of cookies and data.
  • In Hungary
  • List of Countries
  • For 7 days
  • Water Temperature
  • Weather Map
  • News
  • Weather Widgets
  • user-avatar
    Login

    Hourly Weather Mylushi

    Today, 25 August, Sunday

    Time Temperature Precipitation Wind Pressure Humidity
    00:00 +16°C° 0 mm 2 mps 751 mmHg 70%
    01:00 +15°C° 0 mm 2 mps 751 mmHg 72%
    02:00 +15°C° 0 mm 2 mps 751 mmHg 73%
    03:00 +15°C° 0 mm 2 mps 751 mmHg 74%
    04:00 +15°C° 0 mm 2 mps 751 mmHg 74%
    05:00 +14°C° 0 mm 2 mps 751 mmHg 75%
    06:00 +16°C° 0 mm 2 mps 751 mmHg 72%
    07:00 +17°C° 0 mm 3 mps 752 mmHg 69%
    08:00 +18°C° 0 mm 3 mps 752 mmHg 65%
    09:00 +20°C° 0 mm 3 mps 752 mmHg 61%
    10:00 +22°C° 0 mm 3 mps 752 mmHg 57%
    11:00 +25°C° 0 mm 4 mps 752 mmHg 52%
    12:00 +25°C° 0 mm 4 mps 752 mmHg 51%
    13:00 +26°C° 0 mm 4 mps 752 mmHg 49%
    14:00 +27°C° 0 mm 4 mps 752 mmHg 48%
    15:00 +26°C° 0 mm 4 mps 751 mmHg 50%
    16:00 +26°C° 0 mm 4 mps 751 mmHg 52%
    17:00 +26°C° 0 mm 4 mps 751 mmHg 54%
    18:00 +24°C° 0 mm 3 mps 751 mmHg 58%
    19:00 +21°C° 0 mm 3 mps 751 mmHg 63%
    20:00 +19°C° 0 mm 3 mps 751 mmHg 67%
    21:00 +18°C° 0 mm 3 mps 751 mmHg 68%
    22:00 +18°C° 0 mm 3 mps 751 mmHg 68%
    23:00 +17°C° 0 mm 3 mps 751 mmHg 69%

    Tomorrow, 26 August, Monday

    Time Temperature Precipitation Wind Pressure Humidity
    00:00 +16°C° 0 mm 3 mps 751 mmHg 70%
    01:00 +16°C° 0 mm 3 mps 751 mmHg 70%
    02:00 +16°C° 0 mm 2 mps 751 mmHg 71%
    03:00 +14°C° 0 mm 3 mps 751 mmHg 73%
    04:00 +14°C° 0 mm 3 mps 751 mmHg 74%
    05:00 +14°C° 0 mm 3 mps 751 mmHg 75%
    06:00 +16°C° 0 mm 3 mps 751 mmHg 72%
    07:00 +17°C° 0 mm 3 mps 751 mmHg 69%
    08:00 +19°C° 0 mm 4 mps 751 mmHg 66%
    09:00 +21°C° 0 mm 4 mps 751 mmHg 62%
    10:00 +23°C° 0 mm 4 mps 751 mmHg 59%
    11:00 +26°C° 0 mm 4 mps 751 mmHg 55%
    12:00 +26°C° 0 mm 4 mps 751 mmHg 53%
    13:00 +27°C° 0 mm 4 mps 751 mmHg 51%
    14:00 +28°C° 0 mm 5 mps 751 mmHg 48%
    15:00 +28°C° 0 mm 4 mps 750 mmHg 51%
    16:00 +28°C° 0 mm 4 mps 750 mmHg 53%
    17:00 +27°C° 0 mm 4 mps 749 mmHg 55%
    18:00 +26°C° 0 mm 4 mps 749 mmHg 60%
    19:00 +24°C° 0 mm 3 mps 749 mmHg 66%
    20:00 +21°C° 0 mm 3 mps 749 mmHg 72%
    21:00 +20°C° 0 mm 3 mps 749 mmHg 74%
    22:00 +19°C° 0 mm 3 mps 749 mmHg 76%
    23:00 +19°C° 0 mm 3 mps 750 mmHg 78%

    Day after tomorrow, 27 August, Tuesday

    Time Temperature Precipitation Wind Pressure Humidity
    00:00 +18°C° 0 mm 3 mps 749 mmHg 81%
    01:00 +18°C° 0 mm 3 mps 749 mmHg 83%
    02:00 +17°C° 0 mm 3 mps 749 mmHg 86%
    03:00 +17°C° 0 mm 3 mps 749 mmHg 86%
    04:00 +17°C° 0 mm 3 mps 749 mmHg 86%
    05:00 +16°C° 0 mm 3 mps 749 mmHg 86%
    06:00 +18°C° 0 mm 3 mps 749 mmHg 81%
    07:00 +19°C° 0 mm 3 mps 749 mmHg 77%
    08:00 +20°C° 0 mm 3 mps 750 mmHg 72%
    09:00 +22°C° 0 mm 3 mps 750 mmHg 66%
    10:00 +25°C° 0 mm 4 mps 750 mmHg 60%
    11:00 +27°C° 0 mm 4 mps 750 mmHg 55%
    12:00 +28°C° 0 mm 3 mps 750 mmHg 51%
    13:00 +28°C° 0 mm 3 mps 750 mmHg 48%
    14:00 +29°C° 0 mm 3 mps 750 mmHg 44%
    15:00 +29°C° 0 mm 3 mps 750 mmHg 46%
    16:00 +29°C° 0 mm 2 mps 749 mmHg 48%
    17:00 +29°C° 0 mm 2 mps 749 mmHg 49%
    18:00 +27°C° 0 mm 2 mps 749 mmHg 55%
    19:00 +24°C° 0 mm 3 mps 749 mmHg 61%
    20:00 +21°C° 0 mm 3 mps 749 mmHg 67%
    21:00 +20°C° 0 mm 3 mps 749 mmHg 69%
    22:00 +20°C° 0 mm 2 mps 749 mmHg 72%
    23:00 +19°C° 0 mm 2 mps 750 mmHg 74%

    28 August, Wednesday

    Time Temperature Precipitation Wind Pressure Humidity
    00:00 +18°C° 0 mm 2 mps 750 mmHg 76%
    01:00 +18°C° 0 mm 2 mps 749 mmHg 77%
    02:00 +18°C° 0 mm 2 mps 749 mmHg 78%
    03:00 +17°C° 0 mm 2 mps 749 mmHg 79%
    04:00 +17°C° 0 mm 2 mps 749 mmHg 80%
    05:00 +16°C° 0 mm 2 mps 749 mmHg 81%
    06:00 +18°C° 0 mm 3 mps 749 mmHg 78%
    07:00 +19°C° 0 mm 3 mps 750 mmHg 74%
    08:00 +20°C° 0 mm 3 mps 750 mmHg 70%
    09:00 +22°C° 0 mm 3 mps 750 mmHg 64%
    10:00 +25°C° 0 mm 4 mps 750 mmHg 59%
    11:00 +27°C° 0 mm 4 mps 750 mmHg 54%
    12:00 +27°C° 0 mm 4 mps 749 mmHg 52%
    13:00 +28°C° 0 mm 4 mps 749 mmHg 50%
    14:00 +29°C° 0 mm 4 mps 749 mmHg 48%
    15:00 +28°C° 0 mm 4 mps 749 mmHg 50%
    16:00 +28°C° 0 mm 4 mps 748 mmHg 52%
    17:00 +27°C° 0 mm 4 mps 748 mmHg 54%
    18:00 +25°C° 0 mm 3 mps 748 mmHg 59%
    19:00 +22°C° 0 mm 3 mps 748 mmHg 64%
    20:00 +21°C° 0 mm 3 mps 748 mmHg 69%
    21:00 +20°C° 0 mm 3 mps 748 mmHg 71%
    22:00 +19°C° 0 mm 3 mps 748 mmHg 74%
    23:00 +19°C° 0 mm 3 mps 748 mmHg 76%

    29 August, Thursday

    Time Temperature Precipitation Wind Pressure Humidity
    00:00 +18°C° 0 mm 3 mps 748 mmHg 79%
    01:00 +17°C° 0 mm 3 mps 748 mmHg 81%
    02:00 +16°C° 0 mm 3 mps 748 mmHg 83%
    03:00 +16°C° 0 mm 3 mps 748 mmHg 83%
    04:00 +16°C° 0 mm 3 mps 748 mmHg 83%
    05:00 +14°C° 0 mm 3 mps 748 mmHg 82%
    06:00 +15°C° 0 mm 4 mps 748 mmHg 78%
    07:00 +17°C° 0 mm 4 mps 748 mmHg 73%
    08:00 +18°C° 0 mm 4 mps 748 mmHg 69%
    09:00 +20°C° 0 mm 5 mps 748 mmHg 64%
    10:00 +22°C° 0 mm 5 mps 748 mmHg 59%
    11:00 +23°C° 0 mm 5 mps 748 mmHg 54%
    12:00 +24°C° 0 mm 6 mps 748 mmHg 53%
    13:00 +26°C° 0 mm 6 mps 748 mmHg 52%
    14:00 +26°C° 0 mm 6 mps 748 mmHg 51%
    15:00 +26°C° 0 mm 6 mps 748 mmHg 53%
    16:00 +25°C° 0 mm 5 mps 747 mmHg 55%
    17:00 +25°C° 0 mm 5 mps 747 mmHg 57%
    18:00 +22°C° 0 mm 5 mps 747 mmHg 59%
    19:00 +20°C° 0 mm 5 mps 747 mmHg 62%
    20:00 +19°C° 0 mm 5 mps 747 mmHg 65%
    21:00 +17°C° 0 mm 5 mps 748 mmHg 63%
    22:00 +16°C° 0 mm 5 mps 748 mmHg 62%
    23:00 +15°C° 0 mm 4 mps 748 mmHg 60%

    30 August, Friday

    Time Temperature Precipitation Wind Pressure Humidity
    00:00 +14°C° 0 mm 4 mps 748 mmHg 59%
    01:00 +13°C° 0 mm 4 mps 748 mmHg 58%
    02:00 +12°C° 0 mm 4 mps 748 mmHg 57%
    03:00 +12°C° 0 mm 4 mps 748 mmHg 57%
    04:00 +12°C° 0 mm 4 mps 748 mmHg 57%
    05:00 +11°C° 0 mm 4 mps 748 mmHg 56%
    06:00 +12°C° 0 mm 4 mps 748 mmHg 55%
    07:00 +13°C° 0 mm 5 mps 748 mmHg 54%
    08:00 +15°C° 0 mm 5 mps 748 mmHg 53%
    09:00 +17°C° 0 mm 5 mps 749 mmHg 50%
    10:00 +20°C° 0 mm 5 mps 749 mmHg 47%
    11:00 +22°C° 0 mm 5 mps 749 mmHg 44%
    12:00 +22°C° 0 mm 5 mps 749 mmHg 43%
    13:00 +23°C° 0 mm 5 mps 749 mmHg 42%
    14:00 +25°C° 0 mm 5 mps 749 mmHg 41%
    15:00 +23°C° 0 mm 5 mps 749 mmHg 43%
    16:00 +23°C° 0 mm 5 mps 748 mmHg 45%
    17:00 +23°C° 0 mm 4 mps 748 mmHg 48%
    18:00 +21°C° 0 mm 4 mps 748 mmHg 53%
    19:00 +18°C° 0 mm 4 mps 748 mmHg 58%
    20:00 +15°C° 0 mm 4 mps 748 mmHg 63%
    21:00 +15°C° 0 mm 4 mps 748 mmHg 64%
    22:00 +14°C° 0 mm 4 mps 748 mmHg 64%
    23:00 +13°C° 0 mm 4 mps 748 mmHg 64%
    Show more